Home   Weather   Bydgoszcz   Past weeks

Flag for Poland Past Weather in Bydgoszcz, Poland — Yesterday and Last 2 Weeks

Now
31 °F

Light freezing rain. Low clouds.


Feels Like: 28 °F
Forecast: 30 / 38 °F
Wind: 3 mph from Southwest

Location: Torun

Current Time: Dec 5, 2016 at 1:46:52 am

Latest Report: Dec 5, 2016 at 1:00 am


Visibility: 1 mi

Pressure: 30.41 "Hg

Humidity: 97%

Dew Point: 31 °F

Location of BydgoszczLocation

Past Weather in Bydgoszcz — Graph

°F

Bydgoszcz Temperature Yesterday

Maximum temperature yesterday: 32 °F (at 1:00 am)
Minimum temperature yesterday: 29 °F (at 4:00 pm)
Average temperature yesterday: 31 °F

High & Low Weather Summary for the Past Weeks

 TemperatureHumidityPressure
High55 °F (Nov 21, 2:00 pm)100% (Nov 23, 5:00 pm)30.44 "Hg (Nov 23, 5:00 pm)
Low27 °F (Nov 28, 11:00 pm)59% (Nov 27, 2:00 pm)29.35 "Hg (Dec 2, 12:00 am)
Average37 °F91%30.06 "Hg
* Reported Nov 20 12:00 am — Dec 5 12:00 am, Bydgoszcz, Weather by CustomWeather, © 2016

Note: Actual official high and low records may vary slightly from our data, if they occured in-between our weather recording intervals... More about our weather records

Advertising

Bydgoszcz Weather History for the Previous 24 Hours

Scroll right to see more
 ConditionsComfort  
Time TempWeatherWind HumidityBarometerVisibility
12:00 am
Mon, Dec 5
31 °FLow clouds.3 mph97%30.42 "Hg1 mi
11:00 pm
Sun, Dec 4
31 °FFog.2 mph98%30.43 "Hg1 mi
10:00 pm31 °FFog.3 mph99%30.43 "Hg1 mi
9:00 pm31 °FFog.2 mph100%30.44 "Hg2 mi
8:00 pm30 °FFog.3 mph99%30.44 "Hg1 mi
7:00 pm30 °FFog.2 mph100%30.44 "Hg1 mi
6:00 pm30 °FFog.2 mph99%30.44 "Hg1 mi
5:00 pm30 °FFog.2 mph99%30.44 "Hg1 mi
4:00 pm29 °FFog.2 mph99%30.43 "Hg1 mi
3:00 pm30 °FFog.2 mph98%30.42 "Hg2 mi
2:00 pm31 °FFog.1 mph100%30.41 "Hg1 mi
1:00 pm30 °FFog.2 mph99%30.41 "Hg1 mi
12:00 pm30 °FFog.2 mph99%30.41 "Hg1 mi
11:00 am30 °FFog.1 mph98%30.40 "Hg1 mi
10:00 am30 °FFog.1 mph98%30.40 "Hg1 mi
9:00 am31 °FFog.2 mph98%30.37 "Hg1 mi
8:00 am31 °FFog.1 mph97%30.36 "Hg2 mi
7:00 am31 °FFog.1 mph95%30.34 "Hg2 mi
6:00 am31 °FFog.1 mph95%30.32 "Hg3 mi
5:00 am31 °FFog.1 mph95%30.32 "Hg3 mi
4:00 am31 °FFog.1 mph95%30.30 "Hg4 mi
3:00 am31 °FFog.2 mph94%30.29 "Hg4 mi
2:00 am32 °FFog.2 mph94%30.28 "Hg4 mi
1:00 am32 °FFog.2 mph94%30.27 "Hg5 mi
Weather by CustomWeather, © 2016

See weather overviewHow to use our weather pages